Details From OIZB - Zabol
To OAIX - Bagram
Flight Number -
Tags Generated
Created
Modified
Stats Distance 451 nm / 836 km
Max Altitude 0 ft / 0 m
Waypoints 3
Social Downloads 0
Likes 0
Share VATSIM

Download

Looking for another format? Having issues loading an existing format? Contact us
Advertisement - Login to hide

Notes

Generated

Route

OIZB R2925 OAIX

ID Type Via Altitude Latitude Longitude Leg Dist Tot Dist Heading (true) Name
O OIZB APT - 0 ft / 0 m 31.11033˚ 61.54051˚ - 0 nm - -
R2925 FIX - 0 ft / 0 m 34.93431˚ 69.25700˚ 451 nm 451 nm 57° / 62° -
O OAIX APT - 0 ft / 0 m 34.93431˚ 69.25700˚ 0 nm 451 nm 0° / 180° -

Altitude Profile

Advertisement - Login to hide

Weather


0- 5 10 15 20 25 30 35+ Temperature / ° C

Clouds and Precipitation
Forecast for 2018-05-24 06:00 UTC. Updated 3 hours ago

Ground ~20,000 ft ~40,000 ft Winds

OIZB

Details ICAO OIZB
Name ZABOL
Region Iran
Timezone Asia/Tehran (UTC+4.5)
Stats Elevation 1,628 ft / 496 m (AMSL)
Location 31.097150° 61.544107°
Runways 1
Magnetic Variation 2.783° E

METAR

OIZB 240800Z 35018KT CAVOK 36/M03 Q1007

Decode

TAF

Not found

Departure Runways

ID Width Length Bearing (true) Bearing (mag) Surface Threshold Offset Overrun Length
16 148 ft / 45 m 9,876 ft / 3,010 m 166.86° 164.08° Asphalt 0 ft / 0 m 820 ft / 250 m
34 148 ft / 45 m 9,876 ft / 3,010 m 346.86° 344.08° Asphalt 0 ft / 0 m 820 ft / 250 m

OAIX

Details ICAO OAIX (BPM)
Name BAGRAM
Region Afghanistan
Timezone Asia/Kabul (UTC+4.5)
Stats Elevation 4,895 ft / 1,492 m (AMSL)
Location 34.946139° 69.264972°
Runways 1
Magnetic Variation 3.294° E

METAR

OAIX 240758Z 00000KT 9999 FEW120 26/M02 A3000 RMK AO2A SLP070 T02601021 $

Decode

TAF

TAF AMD OAIX 240816Z 2408/2513 31009KT 9999 SKC QNH2999INS BECMG 2410/2411 33015G25KT 9999 SKC 520004 QNH2996INS BECMG 2415/2416 32009KT 9999 SCT150 QNH3000INS BECMG 2507/2508 34010G15KT 9000 -SHRA SCT120 QNH3003INS TX27/2411Z TN14/2500Z

Decode

Destination Runways

ID Width Length Bearing (true) Bearing (mag) Surface Threshold Offset Overrun Length
03 180 ft / 55 m 9,865 ft / 3,007 m 28.90° 25.61° Concrete 0 ft / 0 m 0 ft / 0 m
21 180 ft / 55 m 9,865 ft / 3,007 m 208.91° 205.62° Concrete 0 ft / 0 m 0 ft / 0 m